DLR-TUBSAT

Last updated on Wed Jul 16 2025 00:02:29 GMT+0000 (Coordinated Universal Time)

1 25757U 99029B 25196.47304738 .00000076 00000+0 30542-4 0 9994 2 25757 98.6372 176.4813 0013164 296.4943 63.4901 14.52281361384376
UTC large
Height (km)
Speed (km/s)
/
Latitude / Longitude
Inclination (degrees)
Orbital Period (minutes)
Azimuth
Elevation
Range (km)
Doppler Factor

Next 0 passes for location: London (51.5072 / 0.1276)

Sorry there are no passes over London.